Location: Franzen
(48.6167°N, 15.3833°E)
Time: 19:55:26
(UTC+00:00)

Transit 2A - Pass Details

Date: 05 August 2021
Orbit: 594 x 964 km, 66.7° (Epoch: 27 September)

Event Time Altitude Azimuth Distance (km) Brightness Sun altitude
Rises 02:58:35 0° 161° (SSE) 2,834 8.8 -6.4°
Reaches altitude 10° 03:01:50 10° 134° (SE) 1,969 8.3 -6.0°
Maximum altitude 03:03:57 13° 105° (ESE) 1,787 8.6 -5.7°
Drops below altitude 10° 03:06:08 10° 76° (ENE) 2,041 9.7 -5.4°
Sets 03:09:37 0° 50° (NE) 3,030 11.7 -4.9°
